TimeEDT,TemperatureF,Dew PointF,Humidity,Sea Level PressureIn,VisibilityMPH,Wind Direction,Wind SpeedMPH,Gust SpeedMPH,PrecipitationIn,Events,Conditions,WindDirDegrees,DateUTC
12:13 AM,73.4,71.6,94,30.02,10.0,Variable,4.6,-,N/A,,Overcast,0,2013-07-02 04:13:00
12:23 AM,73.4,71.6,94,30.02,10.0,SSE,8.1,-,N/A,,Overcast,160,2013-07-02 04:23:00
12:54 AM,73.9,72.0,93,30.02,10.0,Variable,3.5,-,N/A,,Mostly Cloudy,0,2013-07-02 04:54:00
1:11 AM,73.4,71.6,94,30.03,10.0,SSW,5.8,-,N/A,,Scattered Clouds,200,2013-07-02 05:11:00
1:54 AM,73.9,72.0,93,30.02,10.0,Variable,6.9,-,N/A,,Mostly Cloudy,0,2013-07-02 05:54:00
2:54 AM,73.9,72.0,93,30.03,10.0,Variable,4.6,-,N/A,,Overcast,0,2013-07-02 06:54:00
3:54 AM,73.9,73.0,97,30.03,8.0,South,3.5,-,N/A,,Overcast,180,2013-07-02 07:54:00
4:09 AM,73.4,73.4,100,30.04,9.0,South,4.6,-,N/A,,Overcast,190,2013-07-02 08:09:00
4:22 AM,75.2,73.4,94,30.04,9.0,Variable,3.5,-,N/A,,Overcast,0,2013-07-02 08:22:00
4:31 AM,75.2,73.4,94,30.05,9.0,South,4.6,-,N/A,,Overcast,190,2013-07-02 08:31:00
4:54 AM,75.0,73.0,94,30.05,8.0,South,5.8,-,N/A,,Overcast,190,2013-07-02 08:54:00
5:54 AM,73.9,73.0,97,30.06,7.0,Calm,Calm,-,N/A,,Mostly Cloudy,0,2013-07-02 09:54:00
6:05 AM,73.4,73.4,100,30.07,7.0,SSE,3.5,-,N/A,,Mostly Cloudy,150,2013-07-02 10:05:00
6:17 AM,73.4,73.4,100,30.07,5.0,SSE,4.6,-,N/A,,Mostly Cloudy,150,2013-07-02 10:17:00
6:35 AM,73.4,73.4,100,30.08,4.0,SE,3.5,-,N/A,,Scattered Clouds,140,2013-07-02 10:35:00
6:54 AM,73.9,73.0,97,30.08,5.0,SSE,3.5,-,N/A,,Scattered Clouds,150,2013-07-02 10:54:00
7:07 AM,73.4,73.4,100,30.09,5.0,SE,4.6,-,N/A,,Mostly Cloudy,140,2013-07-02 11:07:00
7:21 AM,75.2,73.4,94,30.09,5.0,SSE,4.6,-,N/A,,Overcast,150,2013-07-02 11:21:00
7:51 AM,75.2,73.4,94,30.10,5.0,SSE,5.8,-,N/A,,Overcast,150,2013-07-02 11:51:00
7:54 AM,75.9,73.9,94,30.10,5.0,SSE,5.8,-,N/A,,Overcast,150,2013-07-02 11:54:00
8:43 AM,77.0,75.2,94,30.11,7.0,SSE,8.1,-,N/A,,Mostly Cloudy,160,2013-07-02 12:43:00
8:54 AM,77.0,75.0,94,30.11,7.0,SSE,6.9,-,N/A,,Mostly Cloudy,150,2013-07-02 12:54:00
9:16 AM,78.8,75.2,89,30.11,9.0,SSE,8.1,-,N/A,,Mostly Cloudy,160,2013-07-02 13:16:00
10:11 AM,78.8,75.2,89,30.11,7.0,SSE,9.2,-,0.00,Rain,Light Rain,160,2013-07-02 14:11:00
10:22 AM,78.8,75.2,89,30.11,6.0,SSE,8.1,-,0.00,Rain,Light Rain,160,2013-07-02 14:22:00
10:46 AM,77.0,71.6,83,30.14,1.5,South,11.5,24.2,0.08,Rain,Rain,170,2013-07-02 14:46:00
10:54 AM,73.9,70.0,87,30.14,1.8,SSE,15.0,23.0,0.09,Rain,Light Rain,160,2013-07-02 14:54:00
10:56 AM,73.4,69.8,88,30.14,3.0,SSE,11.5,23.0,0.00,Rain,Light Rain,160,2013-07-02 14:56:00
11:14 AM,73.4,71.6,94,30.17,2.5,WSW,9.2,-,0.05,Rain,Rain,250,2013-07-02 15:14:00
11:23 AM,73.4,71.6,94,30.17,1.8,Variable,6.9,-,0.07,Rain,Rain,0,2013-07-02 15:23:00
11:29 AM,73.4,71.6,94,30.16,2.5,South,5.8,-,0.09,Rain,Rain,190,2013-07-02 15:29:00
11:41 AM,71.6,71.6,100,30.16,2.0,SSE,4.6,-,0.13,Rain,Rain,150,2013-07-02 15:41:00
11:54 AM,72.0,71.1,97,30.15,3.0,SE,5.8,-,0.16,Rain,Light Rain,140,2013-07-02 15:54:00
12:10 PM,73.4,71.6,94,30.15,10.0,SSE,4.6,-,0.01,,Mostly Cloudy,150,2013-07-02 16:10:00
12:54 PM,73.0,71.1,93,30.15,4.0,SSE,3.5,-,0.03,Rain,Light Rain,150,2013-07-02 16:54:00
1:54 PM,73.9,72.0,93,30.14,10.0,SSE,5.8,-,0.05,,Partly Cloudy,150,2013-07-02 17:54:00
2:54 PM,75.0,72.0,90,30.15,8.0,SSE,3.5,-,0.00,Rain,Light Rain,160,2013-07-02 18:54:00
3:54 PM,75.9,73.0,91,30.14,10.0,SE,5.8,-,0.01,,Overcast,140,2013-07-02 19:54:00
4:54 PM,77.0,73.9,90,30.14,10.0,SSE,3.5,-,0.00,,Mostly Cloudy,150,2013-07-02 20:54:00
5:54 PM,78.1,73.9,87,30.13,10.0,ESE,5.8,-,0.00,,Unknown,120,2013-07-02 21:54:00
6:54 PM,77.0,73.9,90,30.13,10.0,SE,5.8,-,N/A,,Clear,140,2013-07-02 22:54:00
7:54 PM,77.0,75.0,94,30.14,10.0,ESE,4.6,-,N/A,,Clear,120,2013-07-02 23:54:00
8:54 PM,75.9,73.9,94,30.16,10.0,SE,6.9,-,0.03,,Mostly Cloudy,130,2013-07-03 00:54:00
9:54 PM,75.9,73.9,94,30.17,10.0,SE,5.8,-,N/A,,Clear,140,2013-07-03 01:54:00
10:54 PM,75.0,73.9,96,30.18,10.0,SE,5.8,-,N/A,,Partly Cloudy,140,2013-07-03 02:54:00
11:54 PM,75.0,73.9,96,30.17,9.0,SE,4.6,-,N/A,,Clear,130,2013-07-03 03:54:00